Year,Month,Day,Hour,Minute,Value (Times are PST for insolation in W/m^2)
2012,07,22,00,00,0.00
2012,07,22,00,01,0.00
2012,07,22,00,02,0.00
2012,07,22,00,03,0.00
2012,07,22,00,04,0.00
2012,07,22,00,05,0.00
2012,07,22,00,06,0.00
2012,07,22,00,07,0.00
2012,07,22,00,08,0.00
2012,07,22,00,09,0.00
2012,07,22,00,10,0.00
2012,07,22,00,11,0.00
2012,07,22,00,12,0.00
2012,07,22,00,16,0.00
2012,07,22,00,17,0.00
2012,07,22,00,18,0.00
2012,07,22,00,19,0.00
2012,07,22,00,20,0.00
2012,07,22,00,21,0.00
2012,07,22,00,22,0.00
2012,07,22,00,23,0.00
2012,07,22,00,24,0.00
2012,07,22,00,25,0.00
2012,07,22,00,26,0.00
2012,07,22,00,27,0.00
2012,07,22,00,28,0.00
2012,07,22,00,29,0.00
2012,07,22,00,30,0.00
2012,07,22,00,31,0.00
2012,07,22,00,32,0.00
2012,07,22,00,33,0.00
2012,07,22,00,34,0.00
2012,07,22,00,35,0.00
2012,07,22,00,36,0.00
2012,07,22,00,37,0.00
2012,07,22,00,38,0.00
2012,07,22,00,39,0.00
2012,07,22,00,40,0.00
2012,07,22,00,41,0.00
2012,07,22,00,42,0.00
2012,07,22,00,43,0.00
2012,07,22,00,44,0.00
2012,07,22,00,45,0.00
2012,07,22,00,46,0.00
2012,07,22,00,47,0.00
2012,07,22,00,48,0.00
2012,07,22,00,49,0.00
2012,07,22,00,50,0.00
2012,07,22,00,51,0.00
2012,07,22,00,52,0.00
2012,07,22,00,53,0.00
2012,07,22,00,54,0.00
2012,07,22,00,55,0.00
2012,07,22,00,56,0.00
2012,07,22,00,57,0.00
2012,07,22,00,58,0.00
2012,07,22,00,59,0.00
2012,07,22,01,00,0.00
2012,07,22,01,01,0.00
2012,07,22,01,02,0.00
2012,07,22,01,03,0.00
2012,07,22,01,04,0.00
2012,07,22,01,05,0.00
2012,07,22,01,06,0.00
2012,07,22,01,07,0.00
2012,07,22,01,08,0.00
2012,07,22,01,09,0.00
2012,07,22,01,10,0.00
2012,07,22,01,11,0.00
2012,07,22,01,12,0.00
2012,07,22,01,13,0.00
2012,07,22,01,14,0.00
2012,07,22,01,15,0.00
2012,07,22,01,16,0.00
2012,07,22,01,17,0.00
2012,07,22,01,18,0.00
2012,07,22,01,19,0.00
2012,07,22,01,20,0.00
2012,07,22,01,21,0.00
2012,07,22,01,22,0.00
2012,07,22,01,23,0.00
2012,07,22,01,24,0.00
2012,07,22,01,25,0.00
2012,07,22,01,26,0.00
2012,07,22,01,27,0.00
2012,07,22,01,28,0.00
2012,07,22,01,29,0.00
2012,07,22,01,30,0.00
2012,07,22,01,31,0.00
2012,07,22,01,32,0.00
2012,07,22,01,33,0.00
2012,07,22,01,34,0.00
2012,07,22,01,35,0.00
2012,07,22,01,36,0.00
2012,07,22,01,37,0.00
2012,07,22,01,38,0.00
2012,07,22,01,39,0.00
2012,07,22,01,40,0.00
2012,07,22,01,41,0.00
2012,07,22,01,42,0.00
2012,07,22,01,43,0.00
2012,07,22,01,44,0.00
2012,07,22,01,45,0.00
2012,07,22,01,46,0.00
2012,07,22,01,47,0.00
2012,07,22,01,48,0.00
2012,07,22,01,49,0.00
2012,07,22,01,50,0.00
2012,07,22,01,51,0.00
2012,07,22,01,52,0.00
2012,07,22,01,53,0.00
2012,07,22,01,54,0.00
2012,07,22,01,55,0.00
2012,07,22,01,56,0.00
2012,07,22,01,57,0.00
2012,07,22,01,58,0.00
2012,07,22,01,59,0.00
2012,07,22,02,00,0.00
2012,07,22,02,01,0.00
2012,07,22,02,02,0.00
2012,07,22,02,03,0.00
2012,07,22,02,04,0.00
2012,07,22,02,05,0.00
2012,07,22,02,06,0.00
2012,07,22,02,07,0.00
2012,07,22,02,08,0.00
2012,07,22,02,09,0.00
2012,07,22,02,10,0.00
2012,07,22,02,11,0.00
2012,07,22,02,12,0.00
2012,07,22,02,13,0.00
2012,07,22,02,14,0.00
2012,07,22,02,15,0.00
2012,07,22,02,16,0.00
2012,07,22,02,17,0.00
2012,07,22,02,18,0.00
2012,07,22,02,19,0.00
2012,07,22,02,20,0.00
2012,07,22,02,21,0.00
2012,07,22,02,22,0.00
2012,07,22,02,23,0.00
2012,07,22,02,24,0.00
2012,07,22,02,25,0.00
2012,07,22,02,26,0.00
2012,07,22,02,27,0.00
2012,07,22,02,28,0.00
2012,07,22,02,29,0.00
2012,07,22,02,30,0.00
2012,07,22,02,31,0.00
2012,07,22,02,32,0.00
2012,07,22,02,33,0.00
2012,07,22,02,34,0.00
2012,07,22,02,35,0.00
2012,07,22,02,36,0.00
2012,07,22,02,37,0.00
2012,07,22,02,38,0.00
2012,07,22,02,39,0.00
2012,07,22,02,40,0.00
2012,07,22,02,41,0.00
2012,07,22,02,42,0.00
2012,07,22,02,43,0.00
2012,07,22,02,44,0.00
2012,07,22,02,45,0.00
2012,07,22,02,46,0.00
2012,07,22,02,47,0.00
2012,07,22,02,48,0.00
2012,07,22,02,49,0.00
2012,07,22,02,50,0.00
2012,07,22,02,51,0.00
2012,07,22,02,52,0.00
2012,07,22,02,53,0.00
2012,07,22,02,54,0.00
2012,07,22,02,55,0.00
2012,07,22,02,56,0.00
2012,07,22,02,57,0.00
2012,07,22,02,58,0.00
2012,07,22,02,59,0.00
2012,07,22,03,00,0.00
2012,07,22,03,01,0.00
2012,07,22,03,02,0.00
2012,07,22,03,03,0.00
2012,07,22,03,04,0.00
2012,07,22,03,05,0.00
2012,07,22,03,06,0.00
2012,07,22,03,07,0.00
2012,07,22,03,08,0.00
2012,07,22,03,09,0.00
2012,07,22,03,10,0.00
2012,07,22,03,11,0.00
2012,07,22,03,12,0.00
2012,07,22,03,13,0.00
2012,07,22,03,14,0.00
2012,07,22,03,15,0.00
2012,07,22,03,16,0.00
2012,07,22,03,17,0.00
2012,07,22,03,18,0.00
2012,07,22,03,19,0.00
2012,07,22,03,20,0.00
2012,07,22,03,21,0.00
2012,07,22,03,22,0.00
2012,07,22,03,23,0.00
2012,07,22,03,24,0.00
2012,07,22,03,25,0.00
2012,07,22,03,26,0.00
2012,07,22,03,27,0.00
2012,07,22,03,28,0.00
2012,07,22,03,29,0.00
2012,07,22,03,30,0.00
2012,07,22,03,31,0.00
2012,07,22,03,32,0.00
2012,07,22,03,33,0.00
2012,07,22,03,34,0.00
2012,07,22,03,35,0.00
2012,07,22,03,36,0.00
2012,07,22,03,37,0.00
2012,07,22,03,38,0.00
2012,07,22,03,39,0.00
2012,07,22,03,40,0.00
2012,07,22,03,41,0.00
2012,07,22,03,42,0.00
2012,07,22,03,43,0.00
2012,07,22,03,44,0.00
2012,07,22,03,45,0.00
2012,07,22,03,46,0.00
2012,07,22,03,47,0.00
2012,07,22,03,48,0.00
2012,07,22,03,49,0.00
2012,07,22,03,50,0.00
2012,07,22,03,51,0.00
2012,07,22,03,52,0.00
2012,07,22,03,53,0.00
2012,07,22,03,54,0.00
2012,07,22,03,55,0.00
2012,07,22,03,56,0.00
2012,07,22,03,57,0.00
2012,07,22,03,58,0.00
2012,07,22,03,59,0.00
2012,07,22,04,00,0.00
2012,07,22,04,01,0.00
2012,07,22,04,02,0.00
2012,07,22,04,03,0.00
2012,07,22,04,04,0.00
2012,07,22,04,05,0.00
2012,07,22,04,06,0.00
2012,07,22,04,07,0.00
2012,07,22,04,08,0.00
2012,07,22,04,09,0.00
2012,07,22,04,10,0.00
2012,07,22,04,11,0.00
2012,07,22,04,12,0.00
2012,07,22,04,13,0.00
2012,07,22,04,14,0.00
2012,07,22,04,15,0.00
2012,07,22,04,16,0.00
2012,07,22,04,17,0.00
2012,07,22,04,18,0.00
2012,07,22,04,19,0.00
2012,07,22,04,20,0.00
2012,07,22,04,21,0.00
2012,07,22,04,22,0.00
2012,07,22,04,23,0.00
2012,07,22,04,24,0.00
2012,07,22,04,25,0.00
2012,07,22,04,26,0.00
2012,07,22,04,27,0.00
2012,07,22,04,28,0.00
2012,07,22,04,29,0.00
2012,07,22,04,30,0.00
2012,07,22,04,31,0.00
2012,07,22,04,32,0.00
2012,07,22,04,33,0.00
2012,07,22,04,34,0.00
2012,07,22,04,35,0.00
2012,07,22,04,36,0.00
2012,07,22,04,37,0.00
2012,07,22,04,38,0.00
2012,07,22,04,39,0.00
2012,07,22,04,40,0.00
2012,07,22,04,41,0.00
2012,07,22,04,42,0.00
2012,07,22,04,43,0.00
2012,07,22,04,44,0.00
2012,07,22,04,45,0.00
2012,07,22,04,46,0.00
2012,07,22,04,47,0.00
2012,07,22,04,48,0.00
2012,07,22,04,49,0.00
2012,07,22,04,50,0.00
2012,07,22,04,51,0.00
2012,07,22,04,52,0.00
2012,07,22,04,53,0.00
2012,07,22,04,54,0.00
2012,07,22,04,55,0.00
2012,07,22,04,56,0.00
2012,07,22,04,57,0.00
2012,07,22,04,58,0.00
2012,07,22,04,59,0.00
2012,07,22,05,00,0.00
2012,07,22,05,01,0.00
2012,07,22,05,02,0.00
2012,07,22,05,03,0.00
2012,07,22,05,04,0.00
2012,07,22,05,05,0.00
2012,07,22,05,06,0.00
2012,07,22,05,07,0.00
2012,07,22,05,08,0.00
2012,07,22,05,09,0.00
2012,07,22,05,10,0.00
2012,07,22,05,11,0.00
2012,07,22,05,12,0.00
2012,07,22,05,13,0.00
2012,07,22,05,14,0.00
2012,07,22,05,15,0.00
2012,07,22,05,16,0.00
2012,07,22,05,17,0.00
2012,07,22,05,18,0.00
2012,07,22,05,19,0.00
2012,07,22,05,20,0.00
2012,07,22,05,21,0.00
2012,07,22,05,22,0.00
2012,07,22,05,23,0.00
2012,07,22,05,24,0.00
2012,07,22,05,25,0.00
2012,07,22,05,26,0.00
2012,07,22,05,27,0.00
2012,07,22,05,28,0.00
2012,07,22,05,29,0.00
2012,07,22,05,30,0.00
2012,07,22,05,31,0.00
2012,07,22,05,32,0.00
2012,07,22,05,33,0.00
2012,07,22,05,34,0.00
2012,07,22,05,35,0.00
2012,07,22,05,36,0.00
2012,07,22,05,37,0.00
2012,07,22,05,38,0.00
2012,07,22,05,39,0.00
2012,07,22,05,40,0.00
2012,07,22,05,41,0.00
2012,07,22,05,42,0.00
2012,07,22,05,43,0.00
2012,07,22,05,44,3.00
2012,07,22,05,45,5.00
2012,07,22,05,46,5.00
2012,07,22,05,47,5.00
2012,07,22,05,48,5.00
2012,07,22,05,49,6.60
2012,07,22,05,50,7.00
2012,07,22,05,51,7.00
2012,07,22,05,52,7.00
2012,07,22,05,53,9.00
2012,07,22,05,54,9.00
2012,07,22,05,55,9.20
2012,07,22,05,56,11.00
2012,07,22,05,57,11.00
2012,07,22,05,58,11.00
2012,07,22,05,59,11.20
2012,07,22,06,00,12.00
2012,07,22,06,01,12.70
2012,07,22,06,02,14.00
2012,07,22,06,03,14.00
2012,07,22,06,04,14.00
2012,07,22,06,05,14.00
2012,07,22,06,06,14.00
2012,07,22,06,07,14.00
2012,07,22,06,08,14.00
2012,07,22,06,09,15.40
2012,07,22,06,10,16.00
2012,07,22,06,11,16.00
2012,07,22,06,12,16.00
2012,07,22,06,13,16.00
2012,07,22,06,14,16.00
2012,07,22,06,15,14.10
2012,07,22,06,16,14.00
2012,07,22,06,17,14.00
2012,07,22,06,18,14.20
2012,07,22,06,19,16.00
2012,07,22,06,20,16.30
2012,07,22,06,21,18.00
2012,07,22,06,22,18.00
2012,07,22,06,23,18.00
2012,07,22,06,24,18.30
2012,07,22,06,25,19.00
2012,07,22,06,26,19.90
2012,07,22,06,27,21.00
2012,07,22,06,28,21.00
2012,07,22,06,29,22.10
2012,07,22,06,30,23.00
2012,07,22,06,31,21.70
2012,07,22,06,32,21.00
2012,07,22,06,33,21.00
2012,07,22,06,34,21.00
2012,07,22,06,35,21.00
2012,07,22,06,36,22.70
2012,07,22,06,37,23.00
2012,07,22,06,38,24.80
2012,07,22,06,39,26.00
2012,07,22,06,40,28.10
2012,07,22,06,41,30.00
2012,07,22,06,42,30.30
2012,07,22,06,43,32.00
2012,07,22,06,44,32.20
2012,07,22,06,45,33.00
2012,07,22,06,46,33.00
2012,07,22,06,47,33.70
2012,07,22,06,48,35.00
2012,07,22,06,49,35.80
2012,07,22,06,50,37.90
2012,07,22,06,51,39.00
2012,07,22,06,52,39.50
2012,07,22,06,53,41.20
2012,07,22,06,54,44.60
2012,07,22,06,55,46.70
2012,07,22,06,56,48.40
2012,07,22,06,57,49.00
2012,07,22,06,58,53.00
2012,07,22,06,59,55.70
2012,07,22,07,00,56.00
2012,07,22,07,01,56.00
2012,07,22,07,02,58.00
2012,07,22,07,03,60.20
2012,07,22,07,04,63.60
2012,07,22,07,05,69.40
2012,07,22,07,06,73.00
2012,07,22,07,07,77.80
2012,07,22,07,08,82.20
2012,07,22,07,09,87.20
2012,07,22,07,10,91.10
2012,07,22,07,11,94.60
2012,07,22,07,12,97.40
2012,07,22,07,13,97.50
2012,07,22,07,14,96.00
2012,07,22,07,15,93.90
2012,07,22,07,16,93.00
2012,07,22,07,17,93.00
2012,07,22,07,18,94.40
2012,07,22,07,19,96.50
2012,07,22,07,20,97.00
2012,07,22,07,21,97.00
2012,07,22,07,22,97.00
2012,07,22,07,23,93.60
2012,07,22,07,24,91.20
2012,07,22,07,25,91.00
2012,07,22,07,26,91.00
2012,07,22,07,27,91.20
2012,07,22,07,28,93.30
2012,07,22,07,29,95.30
2012,07,22,07,30,96.60
2012,07,22,07,31,94.50
2012,07,22,07,32,93.00
2012,07,22,07,33,93.00
2012,07,22,07,34,93.80
2012,07,22,07,35,95.00
2012,07,22,07,36,95.00
2012,07,22,07,37,95.00
2012,07,22,07,38,96.10
2012,07,22,07,39,97.60
2012,07,22,07,40,98.00
2012,07,22,07,41,97.30
2012,07,22,07,42,97.70
2012,07,22,07,43,98.00
2012,07,22,07,44,98.00
2012,07,22,07,45,99.70
2012,07,22,07,46,101.70
2012,07,22,07,47,100.20
2012,07,22,07,48,95.20
2012,07,22,07,49,91.00
2012,07,22,07,50,90.90
2012,07,22,07,51,89.70
2012,07,22,07,52,87.40
2012,07,22,07,53,83.80
2012,07,22,07,54,82.50
2012,07,22,07,55,80.40
2012,07,22,07,56,78.40
2012,07,22,07,57,77.00
2012,07,22,07,58,76.60
2012,07,22,07,59,76.00
2012,07,22,08,00,76.00
2012,07,22,08,01,74.90
2012,07,22,08,02,71.70
2012,07,22,08,03,69.40
2012,07,22,08,04,67.60
2012,07,22,08,05,67.00
2012,07,22,08,06,67.00
2012,07,22,08,07,68.60
2012,07,22,08,08,69.00
2012,07,22,08,09,67.20
2012,07,22,08,10,65.20
2012,07,22,08,11,63.10
2012,07,22,08,12,62.00
2012,07,22,08,13,62.00
2012,07,22,08,14,62.00
2012,07,22,08,15,62.20
2012,07,22,08,16,63.50
2012,07,22,08,17,64.50
2012,07,22,08,18,62.70
2012,07,22,08,19,61.30
2012,07,22,08,20,60.00
2012,07,22,08,21,59.10
2012,07,22,08,22,58.00
2012,07,22,08,23,58.00
2012,07,22,08,24,58.00
2012,07,22,08,25,59.10
2012,07,22,08,26,60.00
2012,07,22,08,27,61.40
2012,07,22,08,28,62.00
2012,07,22,08,29,65.70
2012,07,22,08,30,67.00
2012,07,22,08,31,68.70
2012,07,22,08,32,67.30
2012,07,22,08,33,67.00
2012,07,22,08,34,67.00
2012,07,22,08,35,67.00
2012,07,22,08,36,69.00
2012,07,22,08,37,69.10
2012,07,22,08,38,70.30
2012,07,22,08,39,72.40
2012,07,22,08,40,74.50
2012,07,22,08,41,76.30
2012,07,22,08,42,77.00
2012,07,22,08,43,77.80
2012,07,22,08,44,79.90
2012,07,22,08,45,82.40
2012,07,22,08,46,86.00
2012,07,22,08,47,89.10
2012,07,22,08,48,91.70
2012,07,22,08,49,95.50
2012,07,22,08,50,97.70
2012,07,22,08,51,98.00
2012,07,22,08,52,101.00
2012,07,22,08,53,103.60
2012,07,22,08,54,106.40
2012,07,22,08,55,110.60
2012,07,22,08,56,115.50
2012,07,22,08,57,119.80
2012,07,22,08,58,121.10
2012,07,22,08,59,123.20
2012,07,22,09,00,125.00
2012,07,22,09,01,125.00
2012,07,22,09,02,125.00
2012,07,22,09,03,125.50
2012,07,22,09,04,127.00
2012,07,22,09,05,128.10
2012,07,22,09,06,130.80
2012,07,22,09,07,132.90
2012,07,22,09,08,134.40
2012,07,22,09,09,135.90
2012,07,22,09,10,138.10
2012,07,22,09,11,140.80
2012,07,22,09,12,144.50
2012,07,22,09,13,147.90
2012,07,22,09,14,150.40
2012,07,22,09,15,152.50
2012,07,22,09,16,157.00
2012,07,22,09,17,163.90
2012,07,22,09,18,173.10
2012,07,22,09,19,183.90
2012,07,22,09,20,194.50
2012,07,22,09,21,202.10
2012,07,22,09,22,203.90
2012,07,22,09,23,201.70
2012,07,22,09,24,197.90
2012,07,22,09,25,190.20
2012,07,22,09,26,183.40
2012,07,22,09,27,177.80
2012,07,22,09,28,172.90
2012,07,22,09,29,170.20
2012,07,22,09,30,168.20
2012,07,22,09,31,167.90
2012,07,22,09,32,169.00
2012,07,22,09,33,169.00
2012,07,22,09,34,169.00
2012,07,22,09,35,170.30
2012,07,22,09,36,169.70
2012,07,22,09,37,167.60
2012,07,22,09,38,165.50
2012,07,22,09,39,165.00
2012,07,22,09,40,165.00
2012,07,22,09,41,170.10
2012,07,22,09,42,171.00
2012,07,22,09,43,171.90
2012,07,22,09,44,176.00
2012,07,22,09,45,181.90
2012,07,22,09,46,191.00
2012,07,22,09,47,197.80
2012,07,22,09,48,202.80
2012,07,22,09,49,206.80
2012,07,22,09,50,210.10
2012,07,22,09,51,215.30
2012,07,22,09,52,223.40
2012,07,22,09,53,233.80
2012,07,22,09,54,248.20
2012,07,22,09,55,265.10
2012,07,22,09,56,280.80
2012,07,22,09,57,291.60
2012,07,22,09,58,298.70
2012,07,22,09,59,301.00
2012,07,22,10,00,296.90
2012,07,22,10,01,291.40
2012,07,22,10,02,286.20
2012,07,22,10,03,281.80
2012,07,22,10,04,279.30
2012,07,22,10,05,278.10
2012,07,22,10,06,278.00
2012,07,22,10,07,271.90
2012,07,22,10,08,269.20
2012,07,22,10,09,271.00
2012,07,22,10,10,271.20
2012,07,22,10,11,272.40
2012,07,22,10,12,274.00
2012,07,22,10,13,275.10
2012,07,22,10,14,277.30
2012,07,22,10,15,276.70
2012,07,22,10,16,278.00
2012,07,22,10,17,277.10
2012,07,22,10,18,275.00
2012,07,22,10,19,272.90
2012,07,22,10,20,272.00
2012,07,22,10,21,271.40
2012,07,22,10,22,268.20
2012,07,22,10,23,260.70
2012,07,22,10,24,253.00
2012,07,22,10,25,248.60
2012,07,22,10,26,249.60
2012,07,22,10,27,250.90
2012,07,22,10,28,259.50
2012,07,22,10,29,263.80
2012,07,22,10,30,266.90
2012,07,22,10,31,274.70
2012,07,22,10,32,281.40
2012,07,22,10,33,284.70
2012,07,22,10,34,282.60
2012,07,22,10,35,281.50
2012,07,22,10,36,284.20
2012,07,22,10,37,285.60
2012,07,22,10,38,281.50
2012,07,22,10,39,278.60
2012,07,22,10,40,278.50
2012,07,22,10,41,277.60
2012,07,22,10,42,275.00
2012,07,22,10,43,276.30
2012,07,22,10,44,281.00
2012,07,22,10,45,285.60
2012,07,22,10,46,290.50
2012,07,22,10,47,299.50
2012,07,22,10,48,313.10
2012,07,22,10,49,334.40
2012,07,22,10,50,380.60
2012,07,22,10,51,410.50
2012,07,22,10,52,357.80
2012,07,22,10,53,345.00
2012,07,22,10,54,345.00
2012,07,22,10,55,347.00
2012,07,22,10,56,358.70
2012,07,22,10,57,370.00
2012,07,22,10,58,374.00
2012,07,22,10,59,374.00
2012,07,22,11,00,385.90
2012,07,22,11,01,438.20
2012,07,22,11,02,490.00
2012,07,22,11,03,490.00
2012,07,22,11,04,502.90
2012,07,22,11,05,517.00
2012,07,22,11,06,517.00
2012,07,22,11,07,457.60
2012,07,22,11,08,417.30
2012,07,22,11,09,466.50
2012,07,22,11,10,483.00
2012,07,22,11,11,483.00
2012,07,22,11,12,457.90
2012,07,22,11,13,486.00
2012,07,22,11,14,481.00
2012,07,22,11,15,453.40
2012,07,22,11,16,485.80
2012,07,22,11,17,462.00
2012,07,22,11,18,457.30
2012,07,22,11,19,418.50
2012,07,22,11,20,427.80
2012,07,22,11,21,432.00
2012,07,22,11,22,460.20
2012,07,22,11,23,506.40
2012,07,22,11,24,447.50
2012,07,22,11,25,416.20
2012,07,22,11,26,421.00
2012,07,22,11,27,429.00
2012,07,22,11,28,437.00
2012,07,22,11,29,445.00
2012,07,22,11,30,494.20
2012,07,22,11,31,498.30
2012,07,22,11,32,485.00
2012,07,22,11,33,480.10
2012,07,22,11,34,481.00
2012,07,22,11,35,493.20
2012,07,22,11,36,496.00
2012,07,22,11,37,549.40
2012,07,22,11,38,555.00
2012,07,22,11,39,555.00
2012,07,22,11,40,964.60
2012,07,22,11,41,881.00
2012,07,22,11,42,881.00
2012,07,22,11,43,881.00
2012,07,22,11,44,881.00
2012,07,22,11,45,881.00
2012,07,22,11,46,774.50
2012,07,22,11,47,518.30
2012,07,22,11,48,504.00
2012,07,22,11,49,504.00
2012,07,22,11,50,494.50
2012,07,22,11,51,479.00
2012,07,22,11,52,471.90
2012,07,22,11,53,477.80
2012,07,22,11,54,482.00
2012,07,22,11,55,482.00
2012,07,22,11,56,504.10
2012,07,22,11,57,487.90
2012,07,22,11,58,531.00
2012,07,22,11,59,550.70
2012,07,22,12,00,552.00
2012,07,22,12,01,670.80
2012,07,22,12,02,677.00
2012,07,22,12,03,508.10
2012,07,22,12,04,509.30
2012,07,22,12,05,504.00
2012,07,22,12,06,510.00
2012,07,22,12,07,516.50
2012,07,22,12,08,537.30
2012,07,22,12,09,553.90
2012,07,22,12,10,572.10
2012,07,22,12,11,544.40
2012,07,22,12,12,532.80
2012,07,22,12,13,529.00
2012,07,22,12,14,522.40
2012,07,22,12,15,514.80
2012,07,22,12,16,508.60
2012,07,22,12,17,507.20
2012,07,22,12,18,495.40
2012,07,22,12,19,485.10
2012,07,22,12,20,477.80
2012,07,22,12,21,473.60
2012,07,22,12,22,477.20
2012,07,22,12,23,475.30
2012,07,22,12,24,510.10
2012,07,22,12,25,512.00
2012,07,22,12,26,512.00
2012,07,22,12,27,512.00
2012,07,22,12,28,512.00
2012,07,22,12,29,512.00
2012,07,22,12,30,525.80
2012,07,22,12,31,548.30
2012,07,22,12,32,515.00
2012,07,22,12,33,541.30
2012,07,22,12,34,501.60
2012,07,22,12,35,523.30
2012,07,22,12,36,541.00
2012,07,22,12,37,541.00
2012,07,22,12,38,936.50
2012,07,22,12,39,1260.00
2012,07,22,12,40,1167.20
2012,07,22,12,41,1113.00
2012,07,22,12,42,1113.00
2012,07,22,12,43,1113.00
2012,07,22,12,44,712.20
2012,07,22,12,45,612.80
2012,07,22,12,46,575.20
2012,07,22,12,47,482.60
2012,07,22,12,48,484.60
2012,07,22,12,49,553.20
2012,07,22,12,50,513.40
2012,07,22,12,51,463.80
2012,07,22,12,52,514.60
2012,07,22,12,53,482.60
2012,07,22,12,54,425.00
2012,07,22,12,55,410.30
2012,07,22,12,56,400.50
2012,07,22,12,57,391.20
2012,07,22,12,58,386.10
2012,07,22,12,59,384.00
2012,07,22,13,00,381.40
2012,07,22,13,01,378.90
2012,07,22,13,02,379.20
2012,07,22,13,03,380.00
2012,07,22,13,04,376.10
2012,07,22,13,05,377.00
2012,07,22,13,06,378.00
2012,07,22,13,07,374.80
2012,07,22,13,08,373.10
2012,07,22,13,09,367.60
2012,07,22,13,10,362.20
2012,07,22,13,11,359.00
2012,07,22,13,12,357.00
2012,07,22,13,13,357.20
2012,07,22,13,14,359.50
2012,07,22,13,15,362.80
2012,07,22,13,16,367.70
2012,07,22,13,17,374.40
2012,07,22,13,18,379.50
2012,07,22,13,19,383.00
2012,07,22,13,20,383.00
2012,07,22,13,21,383.00
2012,07,22,13,22,384.00
2012,07,22,13,23,386.00
2012,07,22,13,24,389.80
2012,07,22,13,25,403.00
2012,07,22,13,26,402.60
2012,07,22,13,27,398.30
2012,07,22,13,28,399.00
2012,07,22,13,29,397.50
2012,07,22,13,30,398.60
2012,07,22,13,31,400.70
2012,07,22,13,32,403.70
2012,07,22,13,33,410.30
2012,07,22,13,34,399.60
2012,07,22,13,35,393.80
2012,07,22,13,36,390.00
2012,07,22,13,37,390.90
2012,07,22,13,38,397.60
2012,07,22,13,39,406.60
2012,07,22,13,40,416.30
2012,07,22,13,41,421.50
2012,07,22,13,42,428.10
2012,07,22,13,43,438.20
2012,07,22,13,44,453.50
2012,07,22,13,45,478.00
2012,07,22,13,46,514.00
2012,07,22,13,47,550.80
2012,07,22,13,48,567.40
2012,07,22,13,49,546.00
2012,07,22,13,50,505.70
2012,07,22,13,51,471.50
2012,07,22,13,52,446.80
2012,07,22,13,53,457.80
2012,07,22,13,54,432.20
2012,07,22,13,55,411.70
2012,07,22,13,56,389.10
2012,07,22,13,57,366.00
2012,07,22,13,58,344.10
2012,07,22,13,59,325.90
2012,07,22,14,00,314.00
2012,07,22,14,01,307.20
2012,07,22,14,02,303.50
2012,07,22,14,03,302.50
2012,07,22,14,04,306.10
2012,07,22,14,05,314.10
2012,07,22,14,06,320.80
2012,07,22,14,07,319.30
2012,07,22,14,08,312.50
2012,07,22,14,09,305.00
2012,07,22,14,10,296.00
2012,07,22,14,11,287.60
2012,07,22,14,12,281.10
2012,07,22,14,13,275.70
2012,07,22,14,14,271.90
2012,07,22,14,15,271.00
2012,07,22,14,16,276.70
2012,07,22,14,17,289.90
2012,07,22,14,18,311.00
2012,07,22,14,19,313.00
2012,07,22,14,20,351.10
2012,07,22,14,21,354.20
2012,07,22,14,22,379.00
2012,07,22,14,23,390.90
2012,07,22,14,24,412.60
2012,07,22,14,25,438.80
2012,07,22,14,26,475.20
2012,07,22,14,27,503.00
2012,07,22,14,28,526.50
2012,07,22,14,29,557.20
2012,07,22,14,30,568.60
2012,07,22,14,31,583.60
2012,07,22,14,32,576.30
2012,07,22,14,33,592.00
2012,07,22,14,34,464.40
2012,07,22,14,35,373.10
2012,07,22,14,36,353.60
2012,07,22,14,37,346.60
2012,07,22,14,38,349.00
2012,07,22,14,39,359.50
2012,07,22,14,40,399.40
2012,07,22,14,41,406.00
2012,07,22,14,42,467.80
2012,07,22,14,43,566.00
2012,07,22,14,44,647.00
2012,07,22,14,45,644.00
2012,07,22,14,46,617.00
2012,07,22,14,47,617.00
2012,07,22,14,48,617.00
2012,07,22,14,49,662.80
2012,07,22,14,50,800.00
2012,07,22,14,51,815.40
2012,07,22,14,52,844.00
2012,07,22,14,53,796.40
2012,07,22,14,54,731.00
2012,07,22,14,55,551.20
2012,07,22,14,56,417.80
2012,07,22,14,57,442.80
2012,07,22,14,58,452.00
2012,07,22,14,59,916.80
2012,07,22,15,00,1125.80
2012,07,22,15,01,1130.00
2012,07,22,15,02,793.20
2012,07,22,15,03,714.00
2012,07,22,15,04,714.00
2012,07,22,15,05,714.00
2012,07,22,15,06,714.00
2012,07,22,15,07,714.00
2012,07,22,15,08,714.00
2012,07,22,15,09,714.00
2012,07,22,15,10,714.00
2012,07,22,15,11,714.00
2012,07,22,15,12,714.00
2012,07,22,15,13,714.00
2012,07,22,15,14,828.70
2012,07,22,15,15,1058.00
2012,07,22,15,16,1058.00
2012,07,22,15,17,1058.00
2012,07,22,15,18,1058.00
2012,07,22,15,19,692.00
2012,07,22,15,20,401.40
2012,07,22,15,21,413.50
2012,07,22,15,22,419.70
2012,07,22,15,23,422.00
2012,07,22,15,24,391.20
2012,07,22,15,25,375.00
2012,07,22,15,26,361.10
2012,07,22,15,27,347.40
2012,07,22,15,28,349.60
2012,07,22,15,29,354.80
2012,07,22,15,30,376.20
2012,07,22,15,31,383.70
2012,07,22,15,32,409.00
2012,07,22,15,33,426.50
2012,07,22,15,34,493.00
2012,07,22,15,35,500.20
2012,07,22,15,36,512.00
2012,07,22,15,37,512.00
2012,07,22,15,38,495.90
2012,07,22,15,39,466.00
2012,07,22,15,40,466.00
2012,07,22,15,41,759.50
2012,07,22,15,42,1053.00
2012,07,22,15,43,1053.00
2012,07,22,15,44,625.80
2012,07,22,15,45,324.10
2012,07,22,15,46,320.00
2012,07,22,15,47,322.00
2012,07,22,15,48,322.00
2012,07,22,15,49,322.00
2012,07,22,15,50,925.90
2012,07,22,15,51,971.20
2012,07,22,15,52,970.00
2012,07,22,15,53,947.20
2012,07,22,15,54,504.80
2012,07,22,15,55,414.40
2012,07,22,15,56,340.90
2012,07,22,15,57,329.80
2012,07,22,15,58,326.80
2012,07,22,15,59,317.30
2012,07,22,16,00,310.40
2012,07,22,16,01,308.00
2012,07,22,16,02,306.00
2012,07,22,16,03,307.40
2012,07,22,16,04,309.00
2012,07,22,16,05,311.10
2012,07,22,16,06,314.20
2012,07,22,16,07,319.30
2012,07,22,16,08,330.40
2012,07,22,16,09,346.90
2012,07,22,16,10,393.10
2012,07,22,16,11,417.20
2012,07,22,16,12,399.80
2012,07,22,16,13,432.50
2012,07,22,16,14,413.80
2012,07,22,16,15,366.40
2012,07,22,16,16,347.20
2012,07,22,16,17,330.60
2012,07,22,16,18,316.50
2012,07,22,16,19,302.40
2012,07,22,16,20,293.60
2012,07,22,16,21,287.80
2012,07,22,16,22,285.90
2012,07,22,16,23,282.30
2012,07,22,16,24,280.00
2012,07,22,16,25,273.00
2012,07,22,16,26,264.50
2012,07,22,16,27,259.40
2012,07,22,16,28,257.00
2012,07,22,16,29,254.70
2012,07,22,16,30,251.70
2012,07,22,16,31,250.40
2012,07,22,16,32,248.60
2012,07,22,16,33,246.50
2012,07,22,16,34,244.40
2012,07,22,16,35,244.00
2012,07,22,16,36,245.70
2012,07,22,16,37,246.00
2012,07,22,16,38,252.60
2012,07,22,16,39,258.00
2012,07,22,16,40,259.80
2012,07,22,16,41,257.60
2012,07,22,16,42,254.20
2012,07,22,16,43,248.90
2012,07,22,16,44,242.70
2012,07,22,16,45,239.00
2012,07,22,16,46,239.70
2012,07,22,16,47,242.10
2012,07,22,16,48,246.40
2012,07,22,16,49,252.20
2012,07,22,16,50,256.50
2012,07,22,16,51,259.10
2012,07,22,16,52,257.10
2012,07,22,16,53,252.60
2012,07,22,16,54,249.00
2012,07,22,16,55,245.00
2012,07,22,16,56,240.10
2012,07,22,16,57,236.80
2012,07,22,16,58,232.80
2012,07,22,16,59,232.00
2012,07,22,17,00,235.80
2012,07,22,17,01,236.00
2012,07,22,17,02,251.70
2012,07,22,17,03,266.90
2012,07,22,17,04,287.30
2012,07,22,17,05,314.80
2012,07,22,17,06,351.00
2012,07,22,17,07,335.00
2012,07,22,17,08,313.60
2012,07,22,17,09,315.20
2012,07,22,17,10,303.20
2012,07,22,17,11,311.50
2012,07,22,17,12,331.60
2012,07,22,17,13,341.00
2012,07,22,17,14,546.30
2012,07,22,17,15,777.00